LVFVY SADL-SADF

Flight info

Callsign LVFVY
Flight time 0h 15m
Altitude 5000
Route ILM DCT VERAS
Aircraft C510/L-SDFGRWY/LB1

Departure

Time 2026-04-22 20:24
Airport La Plata Airport (SADL)

Arrival

Time 2026-04-22 20:40
Airport San Fernando Airport (SADF)
Time Latitude Longitude Altitude Speed Heading
2026-04-22 20:09 -34.96402 -57.88604 61 ft 0 kts 310°
2026-04-22 20:21 -34.96394 -57.88618 61 ft 4 kts 306°
2026-04-22 20:21 -34.96356 -57.88675 61 ft 13 kts 309°
2026-04-22 20:22 -34.96272 -57.88780 58 ft 20 kts 310°
2026-04-22 20:22 -34.96216 -57.88905 59 ft 17 kts 291°
2026-04-22 20:22 -34.96186 -57.89053 61 ft 16 kts 266°
2026-04-22 20:22 -34.96254 -57.89101 61 ft 14 kts 199°
2026-04-22 20:23 -34.96269 -57.89106 58 ft 0 kts 194°
2026-04-22 20:23 -34.96338 -57.89128 61 ft 36 kts 194°
2026-04-22 20:24 -34.96795 -57.89269 59 ft 97 kts 194°
2026-04-22 20:24 -34.97584 -57.89519 232 ft 134 kts 197°
2026-04-22 20:24 -34.98571 -57.89823 553 ft 162 kts 193°
2026-04-22 20:24 -34.99717 -57.90115 1100 ft 168 kts 196°
2026-04-22 20:25 -35.00670 -57.90834 1808 ft 163 kts 236°
2026-04-22 20:25 -35.00997 -57.92152 2445 ft 166 kts 266°
2026-04-22 20:25 -35.00662 -57.93485 3100 ft 171 kts 303°
2026-04-22 20:25 -34.99770 -57.94478 3704 ft 177 kts 318°
2026-04-22 20:26 -34.98829 -57.95456 4300 ft 179 kts 314°
2026-04-22 20:26 -34.97871 -57.96452 4906 ft 183 kts 315°
2026-04-22 20:26 -34.96842 -57.97498 5126 ft 207 kts 314°
2026-04-22 20:26 -34.95682 -57.98708 5133 ft 231 kts 315°
2026-04-22 20:27 -34.94402 -58.00020 5136 ft 247 kts 315°
2026-04-22 20:27 -34.93064 -58.01403 5140 ft 257 kts 315°
2026-04-22 20:27 -34.91674 -58.02833 5138 ft 265 kts 315°
2026-04-22 20:27 -34.90257 -58.04299 5135 ft 269 kts 315°
2026-04-22 20:28 -34.88818 -58.05781 5134 ft 272 kts 315°
2026-04-22 20:28 -34.87389 -58.07258 5130 ft 274 kts 315°
2026-04-22 20:28 -34.85920 -58.08769 5131 ft 276 kts 315°
2026-04-22 20:28 -34.84451 -58.10284 5129 ft 277 kts 315°
2026-04-22 20:29 -34.82976 -58.11804 5128 ft 277 kts 315°
2026-04-22 20:29 -34.81500 -58.13323 5127 ft 278 kts 315°
2026-04-22 20:29 -34.80025 -58.14839 5124 ft 278 kts 315°
2026-04-22 20:29 -34.78544 -58.16366 5123 ft 278 kts 316°
2026-04-22 20:30 -34.77064 -58.17885 5114 ft 278 kts 316°
2026-04-22 20:30 -34.75602 -58.19387 5116 ft 279 kts 316°
2026-04-22 20:30 -34.74120 -58.20911 5116 ft 279 kts 316°
2026-04-22 20:30 -34.72640 -58.22432 5116 ft 278 kts 315°
2026-04-22 20:31 -34.71048 -58.23771 5111 ft 282 kts 328°
2026-04-22 20:31 -34.69248 -58.24736 5111 ft 283 kts 334°
2026-04-22 20:31 -34.67451 -58.25704 5111 ft 282 kts 330°
2026-04-22 20:31 -34.65706 -58.26796 5108 ft 282 kts 328°
2026-04-22 20:32 -34.63958 -58.27882 5108 ft 283 kts 330°
2026-04-22 20:32 -34.62190 -58.28934 5108 ft 283 kts 330°
2026-04-22 20:32 -34.60417 -58.29997 5113 ft 283 kts 330°
2026-04-22 20:32 -34.58652 -58.31062 5109 ft 284 kts 330°
2026-04-22 20:33 -34.56878 -58.32131 5110 ft 284 kts 330°
2026-04-22 20:33 -34.55122 -58.33189 5114 ft 285 kts 330°
2026-04-22 20:33 -34.53347 -58.34254 5112 ft 285 kts 330°
2026-04-22 20:33 -34.51566 -58.35327 5113 ft 286 kts 330°
2026-04-22 20:34 -34.49800 -58.36384 5114 ft 279 kts 330°
2026-04-22 20:34 -34.48098 -58.37404 5110 ft 262 kts 330°
2026-04-22 20:34 -34.46529 -58.38342 5108 ft 241 kts 329°
2026-04-22 20:34 -34.45073 -58.39219 5083 ft 228 kts 329°
2026-04-22 20:35 -34.43701 -58.40040 5004 ft 207 kts 329°
2026-04-22 20:35 -34.42416 -58.40813 4569 ft 206 kts 329°
2026-04-22 20:35 -34.41130 -58.41591 4039 ft 208 kts 330°
2026-04-22 20:35 -34.39838 -58.42363 3500 ft 210 kts 330°
2026-04-22 20:36 -34.38549 -58.43137 3061 ft 205 kts 330°
2026-04-22 20:36 -34.37422 -58.44190 2337 ft 209 kts 306°
2026-04-22 20:36 -34.36776 -58.45733 2000 ft 194 kts 285°
2026-04-22 20:36 -34.36648 -58.47262 1986 ft 176 kts 264°
2026-04-22 20:37 -34.36935 -58.48653 1985 ft 167 kts 246°
2026-04-22 20:37 -34.37558 -58.49813 1986 ft 164 kts 228°
2026-04-22 20:37 -34.38378 -58.50750 1994 ft 159 kts 224°
2026-04-22 20:37 -34.39113 -58.51714 1983 ft 153 kts 227°
2026-04-22 20:38 -34.39848 -58.52597 1971 ft 146 kts 223°
2026-04-22 20:38 -34.40507 -58.53342 1859 ft 118 kts 223°
2026-04-22 20:38 -34.41103 -58.54015 1611 ft 117 kts 222°
2026-04-22 20:38 -34.41711 -58.54696 1276 ft 119 kts 222°
2026-04-22 20:39 -34.42294 -58.55388 994 ft 116 kts 227°
2026-04-22 20:39 -34.42843 -58.56079 791 ft 111 kts 222°
2026-04-22 20:39 -34.43408 -58.56704 611 ft 108 kts 221°
2026-04-22 20:39 -34.43957 -58.57325 454 ft 107 kts 225°
2026-04-22 20:40 -34.44497 -58.57960 236 ft 109 kts 224°
2026-04-22 20:40 -34.45028 -58.58581 39 ft 99 kts 223°
2026-04-22 20:40 -34.45436 -58.59063 23 ft 44 kts 225°
2026-04-22 20:40 -34.45610 -58.59270 23 ft 28 kts 223°
2026-04-22 20:41 -34.45699 -58.59292 23 ft 13 kts 151°
2026-04-22 20:41 -34.45774 -58.59240 23 ft 12 kts 148°
2026-04-22 20:41 -34.45839 -58.59187 23 ft 8 kts 113°
2026-04-22 20:41 -34.45826 -58.59130 24 ft 7 kts 63°
2026-04-22 20:42 -34.45802 -58.59074 23 ft 7 kts 63°
2026-04-22 20:42 -34.45778 -58.59017 23 ft 8 kts 62°
2026-04-22 20:42 -34.45753 -58.58960 23 ft 8 kts 62°
2026-04-22 20:42 -34.45727 -58.58901 23 ft 8 kts 62°
2026-04-22 20:43 -34.45699 -58.58832 23 ft 9 kts 63°
2026-04-22 20:43 -34.45669 -58.58762 23 ft 9 kts 60°
2026-04-22 20:43 -34.45638 -58.58692 23 ft 8 kts 62°
2026-04-22 20:43 -34.45635 -58.58681 23 ft 1 kts 105°
2026-04-22 20:44 -34.45659 -58.58661 23 ft 6 kts 146°
2026-04-22 20:44 -34.45663 -58.58651 23 ft 0 kts 85°
2026-04-22 20:44 -34.45660 -58.58639 23 ft 4 kts 63°